Year,Month,Day,Hour,Minute,Value (Times are PST for temperature in C)
2020,04,27,00,00,8.00
2020,04,27,00,01,8.00
2020,04,27,00,02,8.00
2020,04,27,00,03,8.00
2020,04,27,00,04,8.00
2020,04,27,00,05,8.00
2020,04,27,00,06,8.00
2020,04,27,00,07,8.00
2020,04,27,00,08,8.00
2020,04,27,00,09,8.10
2020,04,27,00,10,8.00
2020,04,27,00,11,8.10
2020,04,27,00,12,8.10
2020,04,27,00,13,8.10
2020,04,27,00,14,8.10
2020,04,27,00,15,8.10
2020,04,27,00,16,8.10
2020,04,27,00,17,8.10
2020,04,27,00,18,8.10
2020,04,27,00,19,8.10
2020,04,27,00,20,8.10
2020,04,27,00,21,8.10
2020,04,27,00,22,8.10
2020,04,27,00,23,8.10
2020,04,27,00,24,8.10
2020,04,27,00,25,8.10
2020,04,27,00,26,8.10
2020,04,27,00,27,8.10
2020,04,27,00,28,8.10
2020,04,27,00,29,8.10
2020,04,27,00,30,8.10
2020,04,27,00,31,8.10
2020,04,27,00,32,8.10
2020,04,27,00,33,8.10
2020,04,27,00,34,8.10
2020,04,27,00,35,8.10
2020,04,27,00,36,8.10
2020,04,27,00,37,8.10
2020,04,27,00,38,8.10
2020,04,27,00,39,8.10
2020,04,27,00,40,8.10
2020,04,27,00,41,8.10
2020,04,27,00,42,8.10
2020,04,27,00,43,8.10
2020,04,27,00,44,8.10
2020,04,27,00,45,8.10
2020,04,27,00,46,8.10
2020,04,27,00,47,8.10
2020,04,27,00,48,8.10
2020,04,27,00,49,8.10
2020,04,27,00,50,8.10
2020,04,27,00,51,8.10
2020,04,27,00,52,8.10
2020,04,27,00,53,8.10
2020,04,27,00,54,8.10
2020,04,27,00,55,8.10
2020,04,27,00,56,8.10
2020,04,27,00,57,8.10
2020,04,27,00,58,8.10
2020,04,27,00,59,8.10
2020,04,27,01,00,8.10
2020,04,27,01,01,8.10
2020,04,27,01,02,8.10
2020,04,27,01,03,8.10
2020,04,27,01,04,8.10
2020,04,27,01,05,8.10
2020,04,27,01,06,8.10
2020,04,27,01,07,8.10
2020,04,27,01,08,8.10
2020,04,27,01,09,8.10
2020,04,27,01,10,8.10
2020,04,27,01,11,8.10
2020,04,27,01,12,8.10
2020,04,27,01,13,8.10
2020,04,27,01,14,8.00
2020,04,27,01,15,8.10
2020,04,27,01,16,8.10
2020,04,27,01,17,8.10
2020,04,27,01,18,8.10
2020,04,27,01,19,8.10
2020,04,27,01,20,8.10
2020,04,27,01,21,8.10
2020,04,27,01,22,8.10
2020,04,27,01,23,8.10
2020,04,27,01,24,8.10
2020,04,27,01,25,8.10
2020,04,27,01,26,8.10
2020,04,27,01,27,8.10
2020,04,27,01,28,8.20
2020,04,27,01,29,8.20
2020,04,27,01,30,8.20
2020,04,27,01,31,8.20
2020,04,27,01,32,8.20
2020,04,27,01,33,8.20
2020,04,27,01,34,8.20
2020,04,27,01,35,8.20
2020,04,27,01,36,8.20
2020,04,27,01,37,8.20
2020,04,27,01,38,8.20
2020,04,27,01,39,8.20
2020,04,27,01,40,8.20
2020,04,27,01,41,8.20
2020,04,27,01,42,8.20
2020,04,27,01,43,8.30
2020,04,27,01,44,8.30
2020,04,27,01,45,8.30
2020,04,27,01,46,8.30
2020,04,27,01,47,8.20
2020,04,27,01,48,8.20
2020,04,27,01,49,8.20
2020,04,27,01,50,8.20
2020,04,27,01,51,8.20
2020,04,27,01,52,8.20
2020,04,27,01,53,8.20
2020,04,27,01,54,8.20
2020,04,27,01,55,8.20
2020,04,27,01,56,8.20
2020,04,27,01,57,8.20
2020,04,27,01,58,8.20
2020,04,27,01,59,8.20
2020,04,27,02,00,8.20
2020,04,27,02,01,8.20
2020,04,27,02,02,8.20
2020,04,27,02,03,8.20
2020,04,27,02,04,8.20
2020,04,27,02,05,8.20
2020,04,27,02,06,8.20
2020,04,27,02,07,8.20
2020,04,27,02,08,8.20
2020,04,27,02,09,8.20
2020,04,27,02,10,8.20
2020,04,27,02,11,8.20
2020,04,27,02,12,8.10
2020,04,27,02,13,8.20
2020,04,27,02,14,8.10
2020,04,27,02,15,8.10
2020,04,27,02,16,8.10
2020,04,27,02,17,8.10
2020,04,27,02,18,8.10
2020,04,27,02,19,8.10
2020,04,27,02,20,8.10
2020,04,27,02,21,8.10
2020,04,27,02,22,8.10
2020,04,27,02,23,8.10
2020,04,27,02,24,8.10
2020,04,27,02,25,8.10
2020,04,27,02,26,8.10
2020,04,27,02,27,8.10
2020,04,27,02,28,8.10
2020,04,27,02,29,8.10
2020,04,27,02,30,8.10
2020,04,27,02,31,8.10
2020,04,27,02,32,8.10
2020,04,27,02,33,8.10
2020,04,27,02,34,8.10
2020,04,27,02,35,8.10
2020,04,27,02,36,8.10
2020,04,27,02,37,8.10
2020,04,27,02,38,8.10
2020,04,27,02,39,8.10
2020,04,27,02,40,8.20
2020,04,27,02,41,8.20
2020,04,27,02,42,8.20
2020,04,27,02,43,8.20
2020,04,27,02,44,8.20
2020,04,27,02,45,8.20
2020,04,27,02,46,8.20
2020,04,27,02,47,8.20
2020,04,27,02,48,8.20
2020,04,27,02,49,8.20
2020,04,27,02,50,8.20
2020,04,27,02,51,8.20
2020,04,27,02,52,8.20
2020,04,27,02,53,8.20
2020,04,27,02,54,8.20
2020,04,27,02,55,8.20
2020,04,27,02,56,8.20
2020,04,27,02,57,8.20
2020,04,27,02,58,8.20
2020,04,27,02,59,8.20
2020,04,27,03,00,8.20
2020,04,27,03,01,8.20
2020,04,27,03,02,8.20
2020,04,27,03,03,8.20
2020,04,27,03,04,8.20
2020,04,27,03,05,8.20
2020,04,27,03,06,8.20
2020,04,27,03,07,8.20
2020,04,27,03,08,8.20
2020,04,27,03,09,8.20
2020,04,27,03,10,8.20
2020,04,27,03,11,8.20
2020,04,27,03,12,8.20
2020,04,27,03,13,8.20
2020,04,27,03,14,8.20
2020,04,27,03,15,8.20
2020,04,27,03,16,8.20
2020,04,27,03,17,8.20
2020,04,27,03,18,8.20
2020,04,27,03,19,8.20
2020,04,27,03,20,8.20
2020,04,27,03,21,8.20
2020,04,27,03,22,8.20
2020,04,27,03,23,8.20
2020,04,27,03,24,8.20
2020,04,27,03,25,8.20
2020,04,27,03,26,8.20
2020,04,27,03,27,8.20
2020,04,27,03,28,8.20
2020,04,27,03,29,8.20
2020,04,27,03,30,8.20
2020,04,27,03,31,8.20
2020,04,27,03,32,8.20
2020,04,27,03,33,8.20
2020,04,27,03,34,8.20
2020,04,27,03,35,8.20
2020,04,27,03,36,8.20
2020,04,27,03,37,8.20
2020,04,27,03,38,8.20
2020,04,27,03,39,8.20
2020,04,27,03,40,8.10
2020,04,27,03,41,8.20
2020,04,27,03,42,8.20
2020,04,27,03,43,8.20
2020,04,27,03,44,8.20
2020,04,27,03,45,8.20
2020,04,27,03,46,8.20
2020,04,27,03,47,8.20
2020,04,27,03,48,8.20
2020,04,27,03,49,8.20
2020,04,27,03,50,8.20
2020,04,27,03,51,8.20
2020,04,27,03,52,8.20
2020,04,27,03,53,8.20
2020,04,27,03,54,8.20
2020,04,27,03,55,8.10
2020,04,27,03,56,8.20
2020,04,27,03,57,8.10
2020,04,27,03,58,8.10
2020,04,27,03,59,8.10
2020,04,27,04,00,8.10
2020,04,27,04,01,8.10
2020,04,27,04,02,8.10
2020,04,27,04,03,8.10
2020,04,27,04,04,8.10
2020,04,27,04,05,8.10
2020,04,27,04,06,8.10
2020,04,27,04,07,8.00
2020,04,27,04,08,8.00
2020,04,27,04,09,8.00
2020,04,27,04,10,8.00
2020,04,27,04,11,8.00
2020,04,27,04,12,7.90
2020,04,27,04,13,7.90
2020,04,27,04,14,7.90
2020,04,27,04,15,7.90
2020,04,27,04,16,7.90
2020,04,27,04,17,7.90
2020,04,27,04,18,7.90
2020,04,27,04,19,7.90
2020,04,27,04,20,7.90
2020,04,27,04,21,7.90
2020,04,27,04,22,7.90
2020,04,27,04,23,7.90
2020,04,27,04,24,7.90
2020,04,27,04,25,7.80
2020,04,27,04,26,7.80
2020,04,27,04,27,7.80
2020,04,27,04,28,7.80
2020,04,27,04,29,7.80
2020,04,27,04,30,7.80
2020,04,27,04,31,7.80
2020,04,27,04,32,7.80
2020,04,27,04,33,7.80
2020,04,27,04,34,7.80
2020,04,27,04,35,7.80
2020,04,27,04,36,7.80
2020,04,27,04,37,7.80
2020,04,27,04,38,7.80
2020,04,27,04,39,7.80
2020,04,27,04,40,7.80
2020,04,27,04,41,7.80
2020,04,27,04,42,7.80
2020,04,27,04,43,7.80
2020,04,27,04,44,7.80
2020,04,27,04,45,7.70
2020,04,27,04,46,7.70
2020,04,27,04,47,7.70
2020,04,27,04,48,7.70
2020,04,27,04,49,7.70
2020,04,27,04,50,7.70
2020,04,27,04,51,7.70
2020,04,27,04,52,7.70
2020,04,27,04,53,7.70
2020,04,27,04,54,7.60
2020,04,27,04,55,7.60
2020,04,27,04,56,7.60
2020,04,27,04,57,7.60
2020,04,27,04,58,7.60
2020,04,27,04,59,7.60
2020,04,27,05,00,7.60
2020,04,27,05,01,7.60
2020,04,27,05,02,7.60
2020,04,27,05,03,7.50
2020,04,27,05,04,7.50
2020,04,27,05,05,7.50
2020,04,27,05,06,7.50
2020,04,27,05,07,7.50
2020,04,27,05,08,7.50
2020,04,27,05,09,7.50
2020,04,27,05,10,7.50
2020,04,27,05,11,7.50
2020,04,27,05,12,7.50
2020,04,27,05,13,7.40
2020,04,27,05,14,7.40
2020,04,27,05,15,7.40
2020,04,27,05,16,7.40
2020,04,27,05,17,7.40
2020,04,27,05,18,7.40
2020,04,27,05,19,7.40
2020,04,27,05,20,7.30
2020,04,27,05,21,7.30
2020,04,27,05,22,7.30
2020,04,27,05,23,7.30
2020,04,27,05,24,7.30
2020,04,27,05,25,7.30
2020,04,27,05,26,7.30
2020,04,27,05,27,7.30
2020,04,27,05,28,7.30
2020,04,27,05,29,7.30
2020,04,27,05,30,7.20
2020,04,27,05,31,7.20
2020,04,27,05,32,7.20
2020,04,27,05,33,7.30
2020,04,27,05,34,7.30
2020,04,27,05,35,7.30
2020,04,27,05,36,7.30
2020,04,27,05,37,7.30
2020,04,27,05,38,7.20
2020,04,27,05,39,7.20
2020,04,27,05,40,7.20
2020,04,27,05,41,7.10
2020,04,27,05,42,7.10
2020,04,27,05,43,7.10
2020,04,27,05,44,7.10
2020,04,27,05,45,7.00
2020,04,27,05,46,7.00
2020,04,27,05,47,7.00
2020,04,27,05,48,7.00
2020,04,27,05,49,6.90
2020,04,27,05,50,6.90
2020,04,27,05,51,6.90
2020,04,27,05,52,6.80
2020,04,27,05,53,6.80
2020,04,27,05,54,6.80
2020,04,27,05,55,6.80
2020,04,27,05,56,6.80
2020,04,27,05,57,6.80
2020,04,27,05,58,6.70
2020,04,27,05,59,6.80
2020,04,27,06,00,6.80
2020,04,27,06,01,6.80
2020,04,27,06,02,6.80
2020,04,27,06,03,6.80
2020,04,27,06,04,6.80
2020,04,27,06,05,6.80
2020,04,27,06,06,6.90
2020,04,27,06,07,6.90
2020,04,27,06,08,6.90
2020,04,27,06,09,6.90
2020,04,27,06,10,7.00
2020,04,27,06,11,7.00
2020,04,27,06,12,7.00
2020,04,27,06,13,7.00
2020,04,27,06,14,6.90
2020,04,27,06,15,6.90
2020,04,27,06,16,6.90
2020,04,27,06,17,7.00
2020,04,27,06,18,7.00
2020,04,27,06,19,7.00
2020,04,27,06,20,7.00
2020,04,27,06,21,7.00
2020,04,27,06,22,7.00
2020,04,27,06,23,7.00
2020,04,27,06,24,7.00
2020,04,27,06,25,7.00
2020,04,27,06,26,7.00
2020,04,27,06,27,7.00
2020,04,27,06,28,7.00
2020,04,27,06,29,7.00
2020,04,27,06,30,6.90
2020,04,27,06,31,7.00
2020,04,27,06,32,6.90
2020,04,27,06,33,6.90
2020,04,27,06,34,6.90
2020,04,27,06,35,6.90
2020,04,27,06,36,6.90
2020,04,27,06,37,6.90
2020,04,27,06,38,6.90
2020,04,27,06,39,6.80
2020,04,27,06,40,6.90
2020,04,27,06,41,6.90
2020,04,27,06,42,6.90
2020,04,27,06,43,7.00
2020,04,27,06,44,7.10
2020,04,27,06,45,7.10
2020,04,27,06,46,7.00
2020,04,27,06,47,7.10
2020,04,27,06,48,7.10
2020,04,27,06,49,7.00
2020,04,27,06,50,7.00
2020,04,27,06,51,7.00
2020,04,27,06,52,7.00
2020,04,27,06,53,7.10
2020,04,27,06,54,7.20
2020,04,27,06,55,7.40
2020,04,27,06,56,7.50
2020,04,27,06,57,7.50
2020,04,27,06,58,7.50
2020,04,27,06,59,7.50
2020,04,27,07,00,7.50
2020,04,27,07,01,7.50
2020,04,27,07,02,7.60
2020,04,27,07,03,7.60
2020,04,27,07,04,7.50
2020,04,27,07,05,7.60
2020,04,27,07,06,7.60
2020,04,27,07,07,7.60
2020,04,27,07,08,7.60
2020,04,27,07,09,7.60
2020,04,27,07,10,7.60
2020,04,27,07,11,7.60
2020,04,27,07,12,7.50
2020,04,27,07,13,7.50
2020,04,27,07,14,7.50
2020,04,27,07,15,7.40
2020,04,27,07,16,7.40
2020,04,27,07,17,7.40
2020,04,27,07,18,7.40
2020,04,27,07,19,7.40
2020,04,27,07,20,7.40
2020,04,27,07,21,7.40
2020,04,27,07,22,7.40
2020,04,27,07,23,7.40
2020,04,27,07,24,7.40
2020,04,27,07,25,7.40
2020,04,27,07,26,7.40
2020,04,27,07,27,7.40
2020,04,27,07,28,7.50
2020,04,27,07,29,7.50
2020,04,27,07,30,7.50
2020,04,27,07,31,7.50
2020,04,27,07,32,7.50
2020,04,27,07,33,7.50
2020,04,27,07,34,7.60
2020,04,27,07,35,7.60
2020,04,27,07,36,7.70
2020,04,27,07,37,7.70
2020,04,27,07,38,7.70
2020,04,27,07,39,7.80
2020,04,27,07,40,7.80
2020,04,27,07,41,7.80
2020,04,27,07,42,7.80
2020,04,27,07,43,7.80
2020,04,27,07,44,7.90
2020,04,27,07,45,7.90
2020,04,27,07,46,7.90
2020,04,27,07,47,7.90
2020,04,27,07,48,8.00
2020,04,27,07,49,8.00
2020,04,27,07,50,8.00
2020,04,27,07,51,8.10
2020,04,27,07,52,8.10
2020,04,27,07,53,8.10
2020,04,27,07,54,8.20
2020,04,27,07,55,8.30
2020,04,27,07,56,8.40
2020,04,27,07,57,8.50
2020,04,27,07,58,8.50
2020,04,27,07,59,8.60
2020,04,27,08,00,8.70
2020,04,27,08,01,8.80
2020,04,27,08,02,8.80
2020,04,27,08,03,8.90
2020,04,27,08,04,8.90
2020,04,27,08,05,8.90
2020,04,27,08,06,9.10
2020,04,27,08,07,9.20
2020,04,27,08,08,9.30
2020,04,27,08,09,9.40
2020,04,27,08,10,9.50
2020,04,27,08,11,9.50
2020,04,27,08,12,9.60
2020,04,27,08,13,9.60
2020,04,27,08,14,9.70
2020,04,27,08,15,9.80
2020,04,27,08,16,9.80
2020,04,27,08,17,9.80
2020,04,27,08,18,9.80
2020,04,27,08,19,9.90
2020,04,27,08,20,9.90
2020,04,27,08,21,9.90
2020,04,27,08,22,9.90
2020,04,27,08,23,9.90
2020,04,27,08,24,10.00
2020,04,27,08,25,10.00
2020,04,27,08,26,10.00
2020,04,27,08,27,10.00
2020,04,27,08,28,10.10
2020,04,27,08,29,10.10
2020,04,27,08,30,10.10
2020,04,27,08,31,10.10
2020,04,27,08,32,10.10
2020,04,27,08,33,10.10
2020,04,27,08,34,10.10
2020,04,27,08,35,10.10
2020,04,27,08,36,10.20
2020,04,27,08,37,10.30
2020,04,27,08,38,10.30
2020,04,27,08,53,10.50
2020,04,27,08,54,10.50
2020,04,27,08,55,10.50
2020,04,27,08,56,10.60
2020,04,27,08,57,10.60
2020,04,27,08,58,10.60
2020,04,27,08,59,10.60
2020,04,27,09,00,10.60
2020,04,27,09,01,10.60
2020,04,27,09,02,10.60
2020,04,27,09,03,10.70
2020,04,27,09,04,10.70
2020,04,27,09,05,10.70
2020,04,27,09,06,10.70
2020,04,27,09,07,10.70
2020,04,27,09,08,10.80
2020,04,27,09,09,10.80
2020,04,27,09,10,10.70
2020,04,27,09,11,10.70
2020,04,27,09,12,10.70
2020,04,27,09,13,10.70
2020,04,27,09,14,10.60
2020,04,27,09,15,10.60
2020,04,27,09,16,10.60
2020,04,27,09,17,10.60
2020,04,27,09,18,10.60
2020,04,27,09,19,10.60
2020,04,27,09,20,10.60
2020,04,27,09,21,10.60
2020,04,27,09,22,10.70
2020,04,27,09,23,10.70
2020,04,27,09,24,10.70
2020,04,27,09,25,10.70
2020,04,27,09,26,10.70
2020,04,27,09,27,10.70
2020,04,27,09,28,10.70
2020,04,27,09,29,10.70
2020,04,27,09,30,10.80
2020,04,27,09,31,10.80
2020,04,27,09,32,10.80
2020,04,27,09,33,10.90
2020,04,27,09,34,11.00
2020,04,27,09,35,11.00
2020,04,27,09,36,11.10
2020,04,27,09,37,11.20
2020,04,27,09,38,11.30
2020,04,27,09,39,11.40
2020,04,27,09,40,11.40
2020,04,27,09,41,11.50
2020,04,27,09,42,11.60
2020,04,27,09,43,11.70
2020,04,27,09,44,11.80
2020,04,27,09,45,11.80
2020,04,27,09,46,11.80
2020,04,27,09,47,11.90
2020,04,27,09,48,11.90
2020,04,27,09,49,11.90
2020,04,27,09,50,11.90
2020,04,27,09,51,11.80
2020,04,27,09,52,11.80
2020,04,27,09,53,11.80
2020,04,27,09,54,11.70
2020,04,27,09,55,11.60
2020,04,27,09,56,11.50
2020,04,27,09,57,11.40
2020,04,27,09,58,11.40
2020,04,27,09,59,11.30
2020,04,27,10,00,11.30
2020,04,27,10,01,11.20
2020,04,27,10,02,11.10
2020,04,27,10,03,11.00
2020,04,27,10,04,10.80
2020,04,27,10,05,10.70
2020,04,27,10,06,10.50
2020,04,27,10,07,10.40
2020,04,27,10,08,10.30
2020,04,27,10,09,10.10
2020,04,27,10,10,10.00
2020,04,27,10,11,10.00
2020,04,27,10,12,10.00
2020,04,27,10,13,10.00
2020,04,27,10,14,10.00
2020,04,27,10,15,10.10
2020,04,27,10,16,10.10
2020,04,27,10,17,10.10
2020,04,27,10,18,10.10
2020,04,27,10,19,10.10
2020,04,27,10,20,10.20
2020,04,27,10,21,10.20
2020,04,27,10,22,10.20
2020,04,27,10,23,10.30
2020,04,27,10,24,10.30
2020,04,27,10,25,10.30
2020,04,27,10,26,10.20
2020,04,27,10,27,10.20
2020,04,27,10,28,10.20
2020,04,27,10,29,10.20
2020,04,27,10,30,10.20
2020,04,27,10,31,10.10
2020,04,27,10,32,10.10
2020,04,27,10,33,10.00
2020,04,27,10,34,9.90
2020,04,27,10,35,9.80
2020,04,27,10,36,9.80
2020,04,27,10,37,9.70
2020,04,27,10,38,9.70
2020,04,27,10,39,9.60
2020,04,27,10,40,9.60
2020,04,27,10,41,9.60
2020,04,27,10,42,9.60
2020,04,27,10,43,9.60
2020,04,27,10,44,9.60
2020,04,27,10,45,9.70
2020,04,27,10,46,9.80
2020,04,27,10,47,9.90
2020,04,27,10,48,10.10
2020,04,27,10,49,10.20
2020,04,27,10,50,10.20
2020,04,27,10,51,10.30
2020,04,27,10,52,10.40
2020,04,27,10,53,10.50
2020,04,27,10,54,10.60
2020,04,27,10,55,10.70
2020,04,27,10,56,10.80
2020,04,27,10,57,10.90
2020,04,27,10,58,11.00
2020,04,27,10,59,11.10
2020,04,27,11,00,11.10
2020,04,27,11,01,11.20
2020,04,27,11,02,11.20
2020,04,27,11,03,11.20
2020,04,27,11,04,11.20
2020,04,27,11,05,11.20
2020,04,27,11,06,11.20
2020,04,27,11,07,11.10
2020,04,27,11,08,11.10
2020,04,27,11,09,11.00
2020,04,27,11,10,11.00
2020,04,27,11,11,11.00
2020,04,27,11,12,11.00
2020,04,27,11,13,11.00
2020,04,27,11,14,11.00
2020,04,27,11,15,11.00
2020,04,27,11,16,11.00
2020,04,27,11,17,11.10
2020,04,27,11,18,11.20
2020,04,27,11,19,11.20
2020,04,27,11,20,11.30
2020,04,27,11,21,11.30
2020,04,27,11,22,11.30
2020,04,27,11,23,11.30
2020,04,27,11,24,11.30
2020,04,27,11,25,11.30
2020,04,27,11,26,11.30
2020,04,27,11,27,11.30
2020,04,27,11,28,11.30
2020,04,27,11,29,11.30
2020,04,27,11,30,11.40
2020,04,27,11,31,11.40
2020,04,27,11,32,11.50
2020,04,27,11,33,11.50
2020,04,27,11,34,11.60
2020,04,27,11,35,11.60
2020,04,27,11,36,11.50
2020,04,27,11,37,11.50
2020,04,27,11,38,11.50
2020,04,27,11,39,11.40
2020,04,27,11,40,11.40
2020,04,27,11,41,11.30
2020,04,27,11,42,11.30
2020,04,27,11,43,11.30
2020,04,27,11,44,11.30
2020,04,27,11,45,11.20
2020,04,27,11,46,11.30
2020,04,27,11,47,11.30
2020,04,27,11,48,11.40
2020,04,27,11,49,11.50
2020,04,27,11,50,11.50
2020,04,27,11,51,11.50
2020,04,27,11,52,11.50
2020,04,27,11,53,11.60
2020,04,27,11,54,11.60
2020,04,27,11,55,11.60
2020,04,27,11,56,11.60
2020,04,27,11,57,11.60
2020,04,27,11,58,11.60
2020,04,27,11,59,11.70
2020,04,27,12,00,11.70
2020,04,27,12,01,11.70
2020,04,27,12,02,11.70
2020,04,27,12,03,11.70
2020,04,27,12,04,11.70
2020,04,27,12,05,11.70
2020,04,27,12,06,11.70
2020,04,27,12,07,11.80
2020,04,27,12,08,11.80
2020,04,27,12,09,11.80
2020,04,27,12,10,11.90
2020,04,27,12,11,11.90
2020,04,27,12,12,12.00
2020,04,27,12,13,12.00
2020,04,27,12,14,12.00
2020,04,27,12,15,12.00
2020,04,27,12,16,12.00
2020,04,27,12,17,12.00
2020,04,27,12,18,12.00
2020,04,27,12,19,12.00
2020,04,27,12,20,11.90
2020,04,27,12,21,11.90
2020,04,27,12,22,11.90
2020,04,27,12,23,11.90
2020,04,27,12,24,11.90
2020,04,27,12,25,11.90
2020,04,27,12,26,11.90
2020,04,27,12,27,12.00
2020,04,27,12,28,12.00
2020,04,27,12,29,12.10
2020,04,27,12,30,12.10
2020,04,27,12,31,12.20
2020,04,27,12,32,12.30
2020,04,27,12,33,12.40
2020,04,27,12,34,12.40
2020,04,27,12,35,12.50
2020,04,27,12,36,12.60
2020,04,27,12,37,12.70
2020,04,27,12,38,12.80
2020,04,27,12,39,12.90
2020,04,27,12,40,12.90
2020,04,27,12,41,13.00
2020,04,27,12,42,13.00
2020,04,27,12,43,13.10
2020,04,27,12,44,13.10
2020,04,27,12,45,13.10
2020,04,27,12,46,13.10
2020,04,27,12,47,13.10
2020,04,27,12,48,13.00
2020,04,27,12,49,13.00
2020,04,27,12,50,13.00
2020,04,27,12,51,13.00
2020,04,27,12,52,13.10
2020,04,27,12,53,13.20
2020,04,27,12,54,13.20
2020,04,27,12,55,13.30
2020,04,27,12,56,13.40
2020,04,27,12,57,13.60
2020,04,27,12,58,13.60
2020,04,27,12,59,13.70
2020,04,27,13,00,13.70
2020,04,27,13,01,13.80
2020,04,27,13,02,13.80
2020,04,27,13,03,13.80
2020,04,27,13,04,13.80
2020,04,27,13,05,13.70
2020,04,27,13,06,13.70
2020,04,27,13,07,13.60
2020,04,27,13,08,13.70
2020,04,27,13,09,13.70
2020,04,27,13,10,13.70
2020,04,27,13,11,13.70
2020,04,27,13,12,13.60
2020,04,27,13,13,13.60
2020,04,27,13,14,13.70
2020,04,27,13,15,13.80
2020,04,27,13,16,13.90
2020,04,27,13,17,14.00
2020,04,27,13,18,14.10
2020,04,27,13,19,14.10
2020,04,27,13,20,14.30
2020,04,27,13,21,14.40
2020,04,27,13,22,14.50
2020,04,27,13,23,14.60
2020,04,27,13,24,14.70
2020,04,27,13,25,14.70
2020,04,27,13,26,14.70
2020,04,27,13,27,14.60
2020,04,27,13,28,14.70
2020,04,27,13,29,14.80
2020,04,27,13,30,14.80
2020,04,27,13,31,14.80
2020,04,27,13,32,14.70
2020,04,27,13,33,14.70
2020,04,27,13,34,14.70
2020,04,27,13,35,14.70
2020,04,27,13,36,14.70
2020,04,27,13,37,14.80
2020,04,27,13,38,14.80
2020,04,27,13,39,14.70
2020,04,27,13,40,14.70
2020,04,27,13,41,14.80
2020,04,27,13,42,14.80
2020,04,27,13,43,14.90
2020,04,27,13,44,15.00
2020,04,27,13,45,15.10
2020,04,27,13,46,15.20
2020,04,27,13,47,15.20
2020,04,27,13,48,15.20
2020,04,27,13,49,15.20
2020,04,27,13,50,15.00
2020,04,27,13,51,14.90
2020,04,27,13,52,14.90
2020,04,27,13,53,14.80
2020,04,27,13,54,14.60
2020,04,27,13,55,14.50
2020,04,27,13,56,14.40
2020,04,27,13,57,14.40
2020,04,27,13,58,14.40
2020,04,27,13,59,14.30
2020,04,27,14,00,14.20
2020,04,27,14,01,14.20
2020,04,27,14,02,14.30
2020,04,27,14,03,14.30
2020,04,27,14,04,14.30
2020,04,27,14,05,14.40
2020,04,27,14,06,14.40
2020,04,27,14,07,14.50
2020,04,27,14,08,14.50
2020,04,27,14,09,14.50
2020,04,27,14,10,14.40
2020,04,27,14,11,14.40
2020,04,27,14,12,14.40
2020,04,27,14,13,14.40
2020,04,27,14,14,14.40
2020,04,27,14,15,14.40
2020,04,27,14,16,14.40
2020,04,27,14,17,14.40
2020,04,27,14,18,14.50
2020,04,27,14,19,14.60
2020,04,27,14,20,14.60
2020,04,27,14,21,14.70
2020,04,27,14,22,14.70
2020,04,27,14,23,14.70
2020,04,27,14,24,14.60
2020,04,27,14,25,14.50
2020,04,27,14,26,14.40
2020,04,27,14,27,14.20
2020,04,27,14,28,13.90
2020,04,27,14,29,13.80
2020,04,27,14,30,13.70
2020,04,27,14,31,13.50
2020,04,27,14,32,13.40
2020,04,27,14,33,13.30
2020,04,27,14,34,13.30
2020,04,27,14,35,13.30
2020,04,27,14,36,13.20
2020,04,27,14,37,13.20
2020,04,27,14,38,13.30
2020,04,27,14,39,13.30
2020,04,27,14,40,13.40
2020,04,27,14,41,13.40
2020,04,27,14,42,13.30
2020,04,27,14,43,13.30
2020,04,27,14,44,13.30
2020,04,27,14,45,13.30
2020,04,27,14,46,13.40
2020,04,27,14,47,13.40
2020,04,27,14,48,13.50
2020,04,27,14,49,13.60
2020,04,27,14,50,13.70
2020,04,27,14,51,13.60
2020,04,27,14,52,13.50
2020,04,27,14,53,13.40
2020,04,27,14,54,13.40
2020,04,27,14,55,13.40
2020,04,27,14,56,13.30
2020,04,27,14,57,13.30
2020,04,27,14,58,13.30
2020,04,27,14,59,13.30
2020,04,27,15,00,13.30
2020,04,27,15,01,13.30
2020,04,27,15,02,13.40
2020,04,27,15,03,13.50
2020,04,27,15,04,13.60
2020,04,27,15,05,13.70
2020,04,27,15,06,13.80
2020,04,27,15,07,13.90
2020,04,27,15,08,14.00
2020,04,27,15,09,14.00
2020,04,27,15,10,14.00
2020,04,27,15,11,14.00
2020,04,27,15,12,14.10
2020,04,27,15,13,14.20
2020,04,27,15,14,14.20
2020,04,27,15,15,14.10
2020,04,27,15,16,14.10
2020,04,27,15,17,14.10
2020,04,27,15,18,14.10
2020,04,27,15,19,14.10
2020,04,27,15,20,14.00
2020,04,27,15,21,14.10
2020,04,27,15,22,14.10
2020,04,27,15,23,14.10
2020,04,27,15,24,14.10
2020,04,27,15,25,14.20
2020,04,27,15,26,14.20
2020,04,27,15,27,14.30
2020,04,27,15,28,14.30
2020,04,27,15,29,14.30
2020,04,27,15,30,14.30
2020,04,27,15,31,14.30
2020,04,27,15,32,14.30
2020,04,27,15,33,14.30
2020,04,27,15,34,14.30
2020,04,27,15,35,14.30
2020,04,27,15,36,14.30
2020,04,27,15,37,14.30
2020,04,27,15,38,14.30
2020,04,27,15,39,14.40
2020,04,27,15,40,14.50
2020,04,27,15,41,14.50
2020,04,27,15,42,14.60
2020,04,27,15,43,14.60
2020,04,27,15,44,14.60
2020,04,27,15,45,14.60
2020,04,27,15,46,14.60
2020,04,27,15,47,14.50
2020,04,27,15,48,14.40
2020,04,27,15,49,14.40
2020,04,27,15,50,14.40
2020,04,27,15,51,14.50
2020,04,27,15,52,14.50
2020,04,27,15,53,14.50
2020,04,27,15,54,14.40
2020,04,27,15,55,14.40
2020,04,27,15,56,14.40
2020,04,27,15,57,14.30
2020,04,27,15,58,14.30
2020,04,27,15,59,14.40
2020,04,27,16,00,14.30
2020,04,27,16,01,14.20
2020,04,27,16,02,14.10
2020,04,27,16,03,14.10
2020,04,27,16,04,14.20
2020,04,27,16,05,14.20
2020,04,27,16,06,14.20
2020,04,27,16,07,14.20
2020,04,27,16,08,14.30
2020,04,27,16,09,14.30
2020,04,27,16,10,14.30
2020,04,27,16,11,14.40
2020,04,27,16,12,14.40
2020,04,27,16,13,14.40
2020,04,27,16,14,14.50
2020,04,27,16,15,14.60
2020,04,27,16,16,14.60
2020,04,27,16,17,14.70
2020,04,27,16,18,14.70
2020,04,27,16,19,14.70
2020,04,27,16,20,14.80
2020,04,27,16,21,14.80
2020,04,27,16,22,14.80
2020,04,27,16,23,14.80
2020,04,27,16,24,14.80
2020,04,27,16,25,14.70
2020,04,27,16,26,14.70
2020,04,27,16,27,14.70
2020,04,27,16,28,14.70
2020,04,27,16,29,14.80
2020,04,27,16,30,14.80
2020,04,27,16,31,14.80
2020,04,27,16,32,14.80
2020,04,27,16,33,14.90
2020,04,27,16,34,14.90
2020,04,27,16,35,15.00
2020,04,27,16,36,15.10
2020,04,27,16,37,15.00
2020,04,27,16,38,15.00
2020,04,27,16,39,14.80
2020,04,27,16,40,14.80
2020,04,27,16,41,14.70
2020,04,27,16,42,14.70
2020,04,27,16,43,14.60
2020,04,27,16,44,14.50
2020,04,27,16,45,14.30
2020,04,27,16,46,14.20
2020,04,27,16,47,14.10
2020,04,27,16,48,14.10
2020,04,27,16,49,14.20
2020,04,27,16,50,14.20
2020,04,27,16,51,14.20
2020,04,27,16,52,14.30
2020,04,27,16,53,14.30
2020,04,27,16,54,14.30
2020,04,27,16,55,14.20
2020,04,27,16,56,14.20
2020,04,27,16,57,14.20
2020,04,27,16,58,14.30
2020,04,27,16,59,14.40
2020,04,27,17,00,14.50
2020,04,27,17,01,14.60
2020,04,27,17,02,14.60
2020,04,27,17,03,14.60
2020,04,27,17,04,14.60
2020,04,27,17,05,14.60
2020,04,27,17,06,14.60
2020,04,27,17,07,14.50
2020,04,27,17,08,14.50
2020,04,27,17,09,14.40
2020,04,27,17,10,14.30
2020,04,27,17,11,14.20
2020,04,27,17,12,14.20
2020,04,27,17,13,14.10
2020,04,27,17,14,14.10
2020,04,27,17,15,14.10
2020,04,27,17,16,14.20
2020,04,27,17,17,14.10
2020,04,27,17,18,14.10
2020,04,27,17,19,14.10
2020,04,27,17,20,14.10
2020,04,27,17,21,14.10
2020,04,27,17,22,14.10
2020,04,27,17,23,14.20
2020,04,27,17,24,14.20
2020,04,27,17,25,14.20
2020,04,27,17,26,14.10
2020,04,27,17,27,14.10
2020,04,27,17,28,14.00
2020,04,27,17,29,13.90
2020,04,27,17,30,13.90
2020,04,27,17,31,13.90
2020,04,27,17,32,13.90
2020,04,27,17,33,13.80
2020,04,27,17,34,13.70
2020,04,27,17,35,13.70
2020,04,27,17,36,13.50
2020,04,27,17,37,13.50
2020,04,27,17,38,13.50
2020,04,27,17,39,13.40
2020,04,27,17,40,13.40
2020,04,27,17,41,13.40
2020,04,27,17,42,13.40
2020,04,27,17,43,13.40
2020,04,27,17,44,13.30
2020,04,27,17,45,13.20
2020,04,27,17,46,13.20
2020,04,27,17,47,13.20
2020,04,27,17,48,13.20
2020,04,27,17,49,13.20
2020,04,27,17,50,13.20
2020,04,27,17,51,13.20
2020,04,27,17,52,13.20
2020,04,27,17,53,13.20
2020,04,27,17,54,13.20
2020,04,27,17,55,13.20